Location: Unspecified
(0.0000°N, 0.0000°E)
Time: 15:07:10
(UTC+02:00)

Delta 168 - Visible Passes

Search period start: 23 October 2014 00:00
Search period end: 01 November 2014 23:00
Orbit: 395 x 2111 km, 25.3° (Epoch: 22 October)

Date Brightness Start Highest point End Pass type
(mag) Time Alt. Az. Time Alt. Az. Time Alt. Az.
23 Oct 6.8 04:11:46 25° S 04:14:07 26° SSE 04:24:13 10° ESE visible
23 Oct 6.2 06:03:08 10° SW 06:15:29 51° SSE 06:27:18 10° E visible
23 Oct 3.2 20:06:38 10° WNW 20:09:52 56° SSW 20:14:06 10° SE visible
23 Oct 5.8 22:05:13 10° SW 22:07:32 15° SSW 22:07:32 15° SSW visible
24 Oct 6.6 04:08:43 27° S 04:10:23 28° SSE 04:20:52 10° ESE visible
24 Oct 6.1 05:59:15 11° SW 06:11:29 57° SSE 06:23:41 10° ENE visible
24 Oct 3.8 20:03:22 10° W 20:06:24 37° SSW 20:10:12 10° SE visible
24 Oct 6.0 22:03:03 10° SSW 22:04:36 12° SSW 22:04:36 12° SSW visible
25 Oct 6.5 04:05:45 31° SSE 04:06:34 31° SSE 04:17:25 10° E visible
25 Oct 5.9 05:56:18 14° SW 06:07:26 64° SSE 06:19:58 10° ENE visible
26 Oct 6.4 03:02:52 34° SSE 03:02:52 34° SSE 03:13:52 10° E visible
26 Oct 5.8 04:53:25 19° SW 05:03:19 71° SSE 05:16:08 10° ENE visible
27 Oct 6.4 03:00:02 37° SE 03:00:02 37° SE 03:10:12 10° E visible
27 Oct 5.6 04:50:35 25° SW 04:59:09 79° SSE 05:12:11 10° ENE visible
28 Oct 6.3 02:57:12 38° SE 02:57:12 38° SE 03:06:26 10° E visible
28 Oct 5.5 04:47:45 31° WSW 04:54:58 88° SSE 05:08:09 10° ENE visible
29 Oct 6.3 02:54:22 37° ESE 02:54:22 37° ESE 03:02:33 10° E visible
29 Oct 5.4 04:44:55 39° WSW 04:50:45 84° NNW 05:04:00 10° ENE visible
30 Oct 6.4 02:51:29 35° E 02:51:29 35° E 02:58:33 10° E visible
30 Oct 5.4 04:42:02 46° W 04:46:32 75° NNW 04:59:46 10° ENE visible
31 Oct 6.6 02:48:32 31° E 02:48:32 31° E 02:54:27 10° ENE visible
31 Oct 5.4 04:39:04 52° W 04:42:19 67° NNW 04:55:26 10° NE visible
01 Nov 6.7 02:45:29 26° ENE 02:45:29 26° ENE 02:50:14 10° ENE visible
01 Nov 5.4 04:36:01 54° WNW 04:38:08 60° NNW 04:51:01 10° NE visible
